FENGYUN 1C DEB, 38495

Orbit data source: Space-Track

FENGYUN 1C DEB, 38495 is space debris in SSO originally from a launch on Mon, 10 May 1999 UTC launched from the Taiyaun Space Center, China (TSC). Fengyun 1C debris stems from the Chinese weather satellite Fengyun-1C, which was intentionally destroyed by a Chinese anti-satellite missile in 2007. This event dramatically increased the amount of space debris, with thousands of trackable fragments posing hazards to satellites and human spaceflight. The Fengyun 1C debris cloud has become a focal point in discussions about space sustainability and the need for international regulations to prevent the creation of new debris.

Loading next visibility...
Identifier
38495, 1999-025ESE
Orbit
SSO
Country
Flag of CNCN / PRC
Related business
Manufacturer
Unknown
Mission
Spacecraft
Bus & Motor
Unknown
Mass
Unknown
Launch date (UTC)
1999-05-10 (27 years ago)
Launch vehicle
Unknown
Launch site
Taiyaun Space Center, China (TSC)
Object type
Payload
Rocket body
Debris
Shape & HBR
Unknown shape, 1.1 m
Radar Cross Section
Medium (>0.1 m² and <1 m²)

Expand to show TLE details & history
Last TLE update: 2 weeks ago

TLE from 2 weeks ago
0 FENGYUN 1C DEB
1 38495U 99025ESE 26226.25324948  .00001208  00000-0  11418-2 0  9997
2 38495  99.1584 236.0738 0246792 218.5031 139.8285 13.70336128644606
Epoch: 2026-08-14T06:04Z
TLE epoch observation values (Epoch: 2026-08-14T06:04:40.755Z)
Latitude
0.00003°
Longitude
-177.77715°
Altitude
1,142.145 km
Speed
7.212 km/s
True Right ascension
15h 44m 17s
True Declination
0° 00' 00"
Sunlit
Object was in daylight at epoch
Visualization orbit readout
Latitude
Unknown
Longitude
Unknown
Altitude
Unknown
Speed
Unknown
Apparent Right ascension
Unknown
Apparent Declination
Unknown
Sunlit
N/A
Visualization observer readout
Local Sidereal Time
14:39:57
Azimuth
Unknown
Elevation
Unknown
Doppler factor
Unknown
Orbital elements
Apogee altitude
1,177.587 km
Perigee altitude
813.631 km
Semi-major axis
7,373.746 km
Eccentricity
0.02468
Inclination
99.1584°
RAAN
236.0738°
Arg. of periapsis
218.5031°
True anomaly
141.61046°
Mean anomaly
139.8285°
Eccentric anomaly
140.72366°
Mean motion
3.42776 °/min
Orbital period
105.02 mins
BSTAR
0.0011418
Loading maneuver chart data...
Computing Atmospheric mass density...
Loading historical data...
Loading historical data...
Loading historical data...
Loading historical data...
Loading historical data...
Loading historical data...
Loading historical data...

Documentation

Showing up to 5 results
|